Tracking 28799 objects as of 18-Apr-2024
HD Live streaming from Space Station
objects crossing your sky now

COSMOS 397 DEB

Track COSMOS 397 DEB now!
10-day predictions


NORAD ID: 6844
Int'l Code: 1971-015CL
Perigee: 546.4 km
Apogee: 1,427.4 km
Inclination: 65.9 °
Period: 104.7 minutes
Semi major axis: 7357 km
RCS: 0.0356 m2 (small)
Launch date: February 25, 1971
Source: Commonwealth of Independent States (former USSR) (CIS)
Launch site: TYURATAM MISSILE AND SPACE COMPLEX (TTMTR)

Note: This is SATELLITE DEBRIS
Your satellite tracking list
Your tracking list is empty




NASA's NSSDC Master Catalog

Two Line Element Set (TLE):
1 06844U 71015CL  24107.95402652  .00005571  00000-0  15327-2 0  9991
2 06844  65.9008  37.0197 0598662 161.2885 201.1262 13.75542510511280
Source of the keplerian elements: AFSPC